Regional Weather Roundup
Issued by NWS Raleigh/Durham, NC

Home | Current Version | Previous Version | Text Only | Print | Product List | Glossary On
Versions: 1 2 3 4 5 6 7 8 9 10 11 12 13 14 15 16 17 18 19 20 21 22 23 24 25 26 27 28 29 30 31 32 33 34 35 36 37 38 39 40 41 42 43 44 45 46
000
ASUS42 KRAH 280310
RWRRAH
NORTH CAROLINA WEATHER ROUNDUP
NATIONAL WEATHER SERVICE RALEIGH NC
1000 PM EST SAT DEC 27 2014

NOTE: "FAIR" INDICATES FEW OR NO CLOUDS BELOW 12,000 FEET WITH NO
SIGNIFICANT WEATHER AND/OR OBSTRUCTIONS TO VISIBILITY.

NCZ001-053-055-056-065-067-280400-
WESTERN NORTH CAROLINA

CITY           SKY/WX    TMP DP  RH WIND       PRES   REMARKS
ASHEVILLE      MOCLDY    50  34  54 S7        30.19F
JEFFERSON      CLOUDY    47  29  49 CALM      30.17F
MORGANTON      CLOUDY    44  40  86 CALM      30.22F
HICKORY        CLOUDY    54  35  48 S7        30.18F
RUTHERFORDTON  MOCLDY    51  34  52 S6        30.19F
MOUNT AIRY     MOCLDY    52  38  57 CALM      30.20F
BOONE          CLOUDY    47  27  45 S7        30.18F
$$

NCZ021-022-025-041-071-084-088-280400-
CENTRAL NORTH CAROLINA

CITY           SKY/WX    TMP DP  RH WIND       PRES   REMARKS
CHARLOTTE      CLOUDY    50  36  58 S3        30.22F
GREENSBORO     CLOUDY    51  39  63 SW7       30.19S
WINSTON-SALEM  MOCLDY    54  33  45 S6        30.20F
RALEIGH-DURHAM MOCLDY    50  37  61 CALM      30.22S
FORT BRAGG     MOCLDY    49  41  73 S1        30.22R
FAYETTEVILLE   MOCLDY    50  40  68 S5        30.22S
BURLINGTON     CLOUDY    52  37  56 SW3       30.21S
LAURINBURG     PTCLDY    44  42  93 CALM      30.24R
$$

NCZ011-015-027-028-043-044-047-080-103-280400-
NORTHEASTERN NORTH CAROLINA

CITY           SKY/WX    TMP DP  RH WIND       PRES   REMARKS
ROCKY MT-WILSO CLOUDY    49  43  80 SE3       30.20F
GREENVILLE     CLOUDY    48  43  81 S3        30.23F
WASHINGTON     MOCLDY    48  41  76 S3        30.24F
ELIZABETH CITY CLEAR     50  40  68 S7        30.24F
MANTEO         PTCLDY    45  41  87 CALM      30.24F
CAPE HATTERAS  PTCLDY    55  52  89 W6        30.24F
$$

NCZ078-087-090-091-093-098-101-280400-
SOUTHEASTERN NORTH CAROLINA

CITY           SKY/WX    TMP DP  RH WIND       PRES   REMARKS
LUMBERTON      PTCLDY    47  43  86 CALM      30.23S
GOLDSBORO      MOCLDY    51  46  83 SE6       30.21F
KINSTON        MOCLDY    47  42  81 S5        30.24F
KENANSVILLE    PTCLDY    46  41  85 CALM      30.25F
NEW BERN       MOCLDY    46  41  82 CALM      30.25F
CHERRY POINT   PTCLDY    44  41  89 CALM      30.26S
BEAUFORT       PTCLDY    47  46  97 CALM      30.25S
JACKSONVILLE   PTCLDY    46  44  93 CALM      30.24F
WILMINGTON     PTCLDY    48  45  89 CALM      30.25S
$$




USA.gov is the U.S. government's official web portal to all federal, state and local government web resources and services.